Flag for Canada Weather past 2 weeks in Abbotsford, British Columbia, Canada

Now
45 °F

Passing clouds.


Feels Like: 43 °F
Forecast: 45 / 56 °F
Wind: 3 mph from Northeast

Location: Abbotsford

Current Time: Oct 24, 2014 at 8:48:10 AM

Latest Report: Oct 24, 2014 at 8:00 AM


Visibility: 30 mi

Pressure: 30.08 "Hg

Humidity: 100%

Dew point: 45 °F

Location of AbbotsfordLocation

Historic Weather in Abbotsford — Graph

°F

Abbotsford temperature yesterday

Maximum temperature yesterday: 55 °F (at 12:00 AM)
Minimum temperature yesterday: 46 °F (at 7:00 PM)
Average temperature yesterday: 51 °F

Past Weeks' High & Low Weather Summary

 TemperatureHumidityPressure
High72 °F (Oct 19, 2:00 PM)100% (Oct 9, 7:00 AM)30.24 "Hg (Oct 9, 7:00 AM)
Low46 °F (Oct 10, 6:00 AM)52% (Oct 22, 2:00 AM)29.50 "Hg (Oct 22, 8:00 PM)
Average56 °F90%29.85 "Hg
* Reported Oct 9 7:00 AM — Oct 24 7:00 AM, Abbotsford, Weather by CustomWeather, © 2014

Note: Actual official high and low records may vary slightly from our data, if they occured in-between our weather recording intervals... More about our weather records

Advertising

Abbotsford weather history for previous 24 hours

 ConditionsComfort  
Time TempWeatherWind HumidityBarometerVisibility
7:00 AM
Oct 24
46 °FPassing clouds.5 mph100%30.05 "Hg30 mi
6:00 AM46 °FPartly cloudy.5 mph100%30.03 "Hg8 mi
5:00 AM46 °FMostly cloudy.5 mph100%30.04 "Hg8 mi
4:00 AM46 °FOvercast.5 mph100%30.03 "Hg10 mi
3:00 AM46 °FMostly cloudy.5 mph100%30.03 "Hg10 mi
2:00 AM46 °FPassing clouds.6 mph100%30.02 "Hg15 mi
1:00 AM48 °FMostly cloudy.7 mph94%30.02 "Hg15 mi
12:00 AM46 °FPassing clouds.3 mph100%30.01 "Hg15 mi
11:00 PM
Oct 23
48 °FSprinkles. Mostly cloudy.3 mph94%29.99 "Hg10 mi
10:00 PM48 °FScattered showers. Passing clouds.6 mph94%29.97 "Hg8 mi
9:00 PM48 °FSprinkles. Mostly cloudy.5 mph87%29.94 "Hg15 mi
8:00 PM46 °FPassing clouds.7 mph93%29.92 "Hg15 mi
7:00 PM46 °FBroken clouds.3 mph93%29.89 "Hg10 mi
6:00 PM48 °FBroken clouds.7 mph94%29.86 "Hg15 mi
5:00 PM54 °FScattered showers. Partly sunny.14 mph82%29.85 "Hg15 mi
4:00 PM55 °FBroken clouds.16 mph77%29.82 "Hg20 mi
3:00 PM55 °FBroken clouds.15 mph82%29.80 "Hg20 mi
2:00 PM54 °FPartly sunny.10 mph88%29.78 "Hg12 mi
1:00 PM54 °FBroken clouds.14 mph94%29.76 "Hg10 mi
12:00 PM52 °FMostly cloudy.16 mph88%29.75 "Hg20 mi
11:00 AM52 °FLight rain. Fog.7 mph88%29.73 "Hg15 mi
10:00 AM52 °FLight rain. More clouds than sun.17 mph88%29.73 "Hg7 mi
9:00 AM52 °FSprinkles. Mostly cloudy.5 mph94%29.71 "Hg10 mi
8:00 AM52 °FMostly cloudy.5 mph94%29.70 "Hg12 mi
Weather by CustomWeather, © 2014

See weather overviewHow to use our weather pages